Time,TemperatureF,DewpointF,PressureIn,WindDirection,WindDirectionDegrees,WindSpeedMPH,WindSpeedGustMPH,Humidity,HourlyPrecipIn,Conditions,Clouds,dailyrainin,SoftwareType,DateUTC
2013-10-29 00:02:00,64.6,34.0,29.94,SW,225,0.4,1.8,32,0.00,,,0.00,WUHU216HW,2013-10-29 07:02:00,
2013-10-29 00:12:00,64.3,33.7,29.94,SW,225,0.0,0.9,32,0.00,,,0.00,WUHU216HW,2013-10-29 07:12:00,
2013-10-29 00:22:00,63.5,34.5,29.94,SW,225,0.7,0.7,34,0.00,,,0.00,WUHU216HW,2013-10-29 07:22:00,
2013-10-29 00:32:00,62.8,33.9,29.94,SW,225,0.0,0.9,34,0.00,,,0.00,WUHU216HW,2013-10-29 07:32:00,
2013-10-29 00:42:00,62.5,34.2,29.94,SW,225,0.2,0.4,35,0.00,,,0.00,WUHU216HW,2013-10-29 07:42:00,
2013-10-29 00:52:00,62.1,34.7,29.94,SW,225,0.4,0.4,36,0.00,,,0.00,WUHU216HW,2013-10-29 07:52:00,
2013-10-29 01:02:00,61.7,34.3,29.94,SW,225,0.0,0.4,36,0.00,,,0.00,WUHU216HW,2013-10-29 08:02:00,
2013-10-29 01:12:00,61.6,34.1,29.94,SW,225,0.4,0.4,36,0.00,,,0.00,WUHU216HW,2013-10-29 08:12:00,
2013-10-29 01:22:00,61.2,34.6,29.94,SW,225,0.4,1.1,37,0.00,,,0.00,WUHU216HW,2013-10-29 08:22:00,
2013-10-29 01:32:00,60.8,34.9,29.94,SW,225,0.2,0.7,38,0.00,,,0.00,WUHU216HW,2013-10-29 08:32:00,
2013-10-29 01:42:00,60.7,34.7,29.93,SW,225,1.8,1.8,38,0.00,,,0.00,WUHU216HW,2013-10-29 08:42:00,
2013-10-29 01:52:00,60.7,34.7,29.93,SW,225,0.2,1.3,38,0.00,,,0.00,WUHU216HW,2013-10-29 08:52:00,
2013-10-29 02:02:00,60.8,34.9,29.93,SW,225,0.0,1.8,38,0.00,,,0.00,WUHU216HW,2013-10-29 09:02:00,
2013-10-29 02:12:00,60.7,35.5,29.93,SW,225,0.0,1.3,39,0.00,,,0.00,WUHU216HW,2013-10-29 09:12:00,
2013-10-29 02:22:00,60.5,35.3,29.93,SW,225,0.0,0.9,39,0.00,,,0.00,WUHU216HW,2013-10-29 09:22:00,
2013-10-29 02:32:00,60.3,35.2,29.93,SW,225,0.0,0.7,39,0.00,,,0.00,WUHU216HW,2013-10-29 09:32:00,
2013-10-29 02:42:00,60.1,35.0,29.93,SW,225,0.0,0.0,39,0.00,,,0.00,WUHU216HW,2013-10-29 09:42:00,
2013-10-29 02:53:00,60.1,35.7,29.93,SW,225,0.2,1.1,40,0.00,,,0.00,WUHU216HW,2013-10-29 09:53:00,
2013-10-29 03:03:00,59.9,35.6,29.93,SW,225,0.9,1.1,40,0.00,,,0.00,WUHU216HW,2013-10-29 10:03:00,
2013-10-29 03:13:00,59.9,36.1,29.93,SW,225,0.2,1.1,41,0.00,,,0.00,WUHU216HW,2013-10-29 10:13:00,
2013-10-29 03:23:00,59.8,36.0,29.93,SW,225,1.6,1.6,41,0.00,,,0.00,WUHU216HW,2013-10-29 10:23:00,
2013-10-29 03:33:00,59.8,36.0,29.93,SW,225,0.7,0.7,41,0.00,,,0.00,WUHU216HW,2013-10-29 10:33:00,
2013-10-29 03:43:00,59.6,36.4,29.93,SW,225,0.4,1.1,42,0.00,,,0.00,WUHU216HW,2013-10-29 10:43:00,
2013-10-29 03:53:00,59.6,36.4,29.93,SW,225,1.1,1.1,42,0.00,,,0.00,WUHU216HW,2013-10-29 10:53:00,
2013-10-29 04:03:00,59.6,35.8,29.93,SW,225,0.4,1.1,41,0.00,,,0.00,WUHU216HW,2013-10-29 11:03:00,
2013-10-29 04:13:00,59.4,35.6,29.94,SW,225,0.9,0.9,41,0.00,,,0.00,WUHU216HW,2013-10-29 11:13:00,
2013-10-29 04:23:00,59.4,35.6,29.93,SW,225,0.4,1.3,41,0.00,,,0.00,WUHU216HW,2013-10-29 11:23:00,
2013-10-29 04:33:00,59.2,35.5,29.93,SW,225,0.7,1.8,41,0.00,,,0.00,WUHU216HW,2013-10-29 11:33:00,
2013-10-29 04:43:00,59.0,35.3,29.93,SW,225,0.2,1.1,41,0.00,,,0.00,WUHU216HW,2013-10-29 11:43:00,
2013-10-29 04:53:00,58.9,35.2,29.93,SW,225,0.0,0.9,41,0.00,,,0.00,WUHU216HW,2013-10-29 11:53:00,
2013-10-29 05:03:00,58.7,35.6,29.93,SW,225,0.0,2.0,42,0.00,,,0.00,WUHU216HW,2013-10-29 12:03:00,
2013-10-29 05:13:00,58.7,35.0,29.94,SW,225,1.1,1.8,41,0.00,,,0.00,WUHU216HW,2013-10-29 12:13:00,
2013-10-29 05:23:00,58.7,35.6,29.93,SW,225,0.4,1.8,42,0.00,,,0.00,WUHU216HW,2013-10-29 12:23:00,
2013-10-29 05:33:00,58.5,34.8,29.94,SW,225,0.4,1.1,41,0.00,,,0.00,WUHU216HW,2013-10-29 12:33:00,
2013-10-29 05:43:00,58.3,35.3,29.94,SW,225,0.2,0.9,42,0.00,,,0.00,WUHU216HW,2013-10-29 12:43:00,
2013-10-29 05:53:00,58.3,34.7,29.94,SW,225,0.4,0.9,41,0.00,,,0.00,WUHU216HW,2013-10-29 12:53:00,
2013-10-29 06:03:00,58.1,34.5,29.94,SW,225,0.7,1.1,41,0.00,,,0.00,WUHU216HW,2013-10-29 13:03:00,
2013-10-29 06:13:00,58.0,34.9,29.93,SW,225,0.4,0.9,42,0.00,,,0.00,WUHU216HW,2013-10-29 13:13:00,
2013-10-29 06:23:00,57.8,34.2,29.94,SW,225,0.4,0.9,41,0.00,,,0.00,WUHU216HW,2013-10-29 13:23:00,
2013-10-29 06:33:00,57.6,34.6,29.94,SW,225,0.9,0.9,42,0.00,,,0.00,WUHU216HW,2013-10-29 13:33:00,
2013-10-29 06:43:00,57.4,34.5,29.93,SW,225,1.1,1.1,42,0.00,,,0.00,WUHU216HW,2013-10-29 13:43:00,
2013-10-29 06:54:00,57.2,34.8,29.94,SW,225,0.2,1.8,43,0.00,,,0.00,WUHU216HW,2013-10-29 13:54:00,
2013-10-29 07:04:00,57.2,34.8,29.94,SW,225,0.4,0.9,43,0.00,,,0.00,WUHU216HW,2013-10-29 14:04:00,
2013-10-29 07:14:00,57.2,34.8,29.94,SSW,203,0.4,1.1,43,0.00,,,0.00,WUHU216HW,2013-10-29 14:14:00,
2013-10-29 07:24:00,57.8,35.4,29.95,SSW,203,0.4,1.8,43,0.00,,,0.00,WUHU216HW,2013-10-29 14:24:00,
2013-10-29 07:34:00,58.3,35.3,29.95,SSW,203,0.4,2.0,42,0.00,,,0.00,WUHU216HW,2013-10-29 14:34:00,
2013-10-29 07:44:00,59.4,36.2,29.95,SSW,203,1.6,3.1,42,0.00,,,0.00,WUHU216HW,2013-10-29 14:44:00,
2013-10-29 07:54:00,60.3,36.5,29.95,SSW,203,0.4,1.6,41,0.00,,,0.00,WUHU216HW,2013-10-29 14:54:00,
2013-10-29 08:04:00,60.5,37.2,29.96,SSW,203,0.2,0.9,42,0.00,,,0.00,WUHU216HW,2013-10-29 15:04:00,
2013-10-29 08:14:00,60.8,38.1,29.96,SSW,203,0.0,0.9,43,0.00,,,0.00,WUHU216HW,2013-10-29 15:14:00,
2013-10-29 08:24:00,61.6,39.3,29.96,SSW,203,0.9,0.9,44,0.00,,,0.00,WUHU216HW,2013-10-29 15:24:00,
2013-10-29 08:34:00,62.3,40.0,29.96,SSW,203,0.7,1.1,44,0.00,,,0.00,WUHU216HW,2013-10-29 15:34:00,
2013-10-29 08:44:00,63.4,40.3,29.96,SSW,203,0.0,1.1,43,0.00,,,0.00,WUHU216HW,2013-10-29 15:44:00,
2013-10-29 08:54:00,64.6,41.0,29.96,SSW,203,0.0,0.4,42,0.00,,,0.00,WUHU216HW,2013-10-29 15:54:00,
2013-10-29 09:04:00,66.4,39.3,29.96,SSW,203,0.7,0.7,37,0.00,,,0.00,WUHU216HW,2013-10-29 16:04:00,
2013-10-29 09:14:00,67.9,39.0,29.96,SSW,203,0.4,1.8,35,0.00,,,0.00,WUHU216HW,2013-10-29 16:14:00,
2013-10-29 09:24:00,68.8,39.1,29.96,SSW,203,1.3,1.3,34,0.00,,,0.00,WUHU216HW,2013-10-29 16:24:00,
2013-10-29 09:34:00,69.5,39.0,29.96,SSW,203,1.1,1.8,33,0.00,,,0.00,WUHU216HW,2013-10-29 16:34:00,
2013-10-29 09:44:00,70.2,38.9,29.95,SSW,203,0.9,0.9,32,0.00,,,0.00,WUHU216HW,2013-10-29 16:44:00,
2013-10-29 09:54:00,70.6,39.3,29.95,SSW,203,2.9,2.9,32,0.00,,,0.00,WUHU216HW,2013-10-29 16:54:00,
2013-10-29 10:04:00,70.9,38.8,29.95,SSW,203,4.3,4.3,31,0.00,,,0.00,WUHU216HW,2013-10-29 17:04:00,
2013-10-29 10:14:00,71.3,38.3,29.95,WSW,248,3.4,4.7,30,0.00,,,0.00,WUHU216HW,2013-10-29 17:14:00,
2013-10-29 10:24:00,72.0,38.0,29.95,SW,225,3.8,5.1,29,0.00,,,0.00,WUHU216HW,2013-10-29 17:24:00,
2013-10-29 10:34:00,72.4,39.2,29.95,SW,225,4.3,4.3,30,0.00,,,0.00,WUHU216HW,2013-10-29 17:34:00,
2013-10-29 10:45:00,72.7,37.5,29.94,SSW,203,2.7,7.6,28,0.00,,,0.00,WUHU216HW,2013-10-29 17:45:00,
2013-10-29 10:55:00,72.9,37.7,29.94,SW,225,4.0,6.0,28,0.00,,,0.00,WUHU216HW,2013-10-29 17:55:00,
2013-10-29 11:05:00,72.7,37.5,29.94,SSW,203,3.1,5.6,28,0.00,,,0.00,WUHU216HW,2013-10-29 18:05:00,
2013-10-29 11:15:00,73.1,37.8,29.93,SSW,203,4.3,4.9,28,0.00,,,0.00,WUHU216HW,2013-10-29 18:15:00,
2013-10-29 11:25:00,74.5,39.1,29.93,South,180,4.0,4.5,28,0.00,,,0.00,WUHU216HW,2013-10-29 18:25:00,
2013-10-29 11:35:00,76.3,38.6,29.92,SW,225,2.5,6.9,26,0.00,,,0.00,WUHU216HW,2013-10-29 18:35:00,
2013-10-29 11:45:00,77.0,38.2,29.91,SSW,203,6.3,7.6,25,0.00,,,0.00,WUHU216HW,2013-10-29 18:45:00,
2013-10-29 11:55:00,78.5,37.3,29.90,SW,225,6.3,8.5,23,0.00,,,0.00,WUHU216HW,2013-10-29 18:55:00,
2013-10-29 12:05:00,79.6,37.1,29.90,SSW,203,6.3,6.5,22,0.00,,,0.00,WUHU216HW,2013-10-29 19:05:00,
2013-10-29 12:15:00,80.3,36.7,29.90,SW,225,6.9,12.1,21,0.00,,,0.00,WUHU216HW,2013-10-29 19:15:00,
2013-10-29 12:25:00,80.8,34.5,29.89,SW,225,10.7,12.1,19,0.00,,,0.00,WUHU216HW,2013-10-29 19:25:00,
2013-10-29 12:35:00,81.2,34.7,29.89,SW,225,9.2,11.4,19,0.00,,,0.00,WUHU216HW,2013-10-29 19:35:00,
2013-10-29 12:45:00,80.3,34.0,29.89,South,180,8.3,11.4,19,0.00,,,0.00,WUHU216HW,2013-10-29 19:45:00,
2013-10-29 12:55:00,81.0,33.0,29.88,SW,225,6.7,13.4,18,0.00,,,0.00,WUHU216HW,2013-10-29 19:55:00,
2013-10-29 13:05:00,81.4,33.2,29.87,SW,225,12.1,16.3,18,0.00,,,0.00,WUHU216HW,2013-10-29 20:05:00,
2013-10-29 13:16:00,81.4,33.2,29.87,SW,225,7.2,14.3,18,0.00,,,0.00,WUHU216HW,2013-10-29 20:16:00,
2013-10-29 13:26:00,81.4,33.2,29.86,SSW,203,4.9,13.9,18,0.00,,,0.00,WUHU216HW,2013-10-29 20:26:00,
2013-10-29 13:36:00,81.5,33.3,29.86,SW,225,7.2,16.8,18,0.00,,,0.00,WUHU216HW,2013-10-29 20:36:00,
2013-10-29 13:46:00,81.7,33.5,29.85,SW,225,3.8,9.4,18,0.00,,,0.00,WUHU216HW,2013-10-29 20:46:00,
2013-10-29 13:56:00,81.5,33.3,29.85,SW,225,7.6,19.2,18,0.00,,,0.00,WUHU216HW,2013-10-29 20:56:00,
2013-10-29 14:06:00,81.5,33.3,29.85,SW,225,6.9,12.8,18,0.00,,,0.00,WUHU216HW,2013-10-29 21:06:00,
2013-10-29 14:16:00,81.4,33.2,29.85,SW,225,7.6,16.3,18,0.00,,,0.00,WUHU216HW,2013-10-29 21:16:00,
2013-10-29 14:26:00,81.5,33.3,29.85,SSW,203,6.3,9.2,18,0.00,,,0.00,WUHU216HW,2013-10-29 21:26:00,
2013-10-29 14:36:00,81.9,33.7,29.85,SW,225,9.6,15.0,18,0.00,,,0.00,WUHU216HW,2013-10-29 21:36:00,
2013-10-29 14:46:00,82.3,33.9,29.84,SW,225,7.8,11.6,18,0.00,,,0.00,WUHU216HW,2013-10-29 21:46:00,
2013-10-29 14:56:00,82.1,32.0,29.85,WSW,248,8.7,15.4,17,0.00,,,0.00,WUHU216HW,2013-10-29 21:56:00,
2013-10-29 15:06:00,82.1,32.0,29.85,WSW,248,15.2,15.2,17,0.00,,,0.00,WUHU216HW,2013-10-29 22:06:00,
2013-10-29 15:16:00,82.1,30.4,29.85,SW,225,19.2,19.2,16,0.00,,,0.00,WUHU216HW,2013-10-29 22:16:00,
2013-10-29 15:26:00,81.5,31.7,29.85,SW,225,6.5,11.2,17,0.00,,,0.00,WUHU216HW,2013-10-29 22:26:00,
2013-10-29 15:36:00,81.4,31.5,29.85,WNW,293,5.6,14.3,17,0.00,,,0.00,WUHU216HW,2013-10-29 22:36:00,
2013-10-29 15:46:00,81.0,31.2,29.85,West,270,7.8,11.9,17,0.00,,,0.00,WUHU216HW,2013-10-29 22:46:00,
2013-10-29 15:56:00,80.3,32.3,29.85,West,270,11.6,11.6,18,0.00,,,0.00,WUHU216HW,2013-10-29 22:56:00,
2013-10-29 16:06:00,79.6,31.7,29.85,SW,225,6.9,15.0,18,0.00,,,0.00,WUHU216HW,2013-10-29 23:06:00,
2013-10-29 16:16:00,79.2,33.0,29.86,SW,225,4.3,12.1,19,0.00,,,0.00,WUHU216HW,2013-10-29 23:16:00,
2013-10-29 16:26:00,78.8,35.5,29.86,WSW,248,6.3,11.4,21,0.00,,,0.00,WUHU216HW,2013-10-29 23:26:00,
2013-10-29 16:37:00,78.5,36.2,29.86,SW,225,7.2,14.3,22,0.00,,,0.00,WUHU216HW,2013-10-29 23:37:00,
2013-10-29 16:47:00,77.9,34.8,29.86,SW,225,8.1,11.0,21,0.00,,,0.00,WUHU216HW,2013-10-29 23:47:00,
2013-10-29 16:57:00,77.4,35.3,29.86,West,270,7.6,8.9,22,0.00,,,0.00,WUHU216HW,2013-10-29 23:57:00,
2013-10-29 17:07:00,77.0,35.0,29.86,West,270,6.5,10.3,22,0.00,,,0.00,WUHU216HW,2013-10-30 00:07:00,
2013-10-29 17:17:00,76.3,35.5,29.86,WNW,293,4.7,10.1,23,0.00,,,0.00,WUHU216HW,2013-10-30 00:17:00,
2013-10-29 17:27:00,75.6,35.9,29.86,WSW,248,5.6,10.3,24,0.00,,,0.00,WUHU216HW,2013-10-30 00:27:00,
2013-10-29 17:37:00,75.2,36.6,29.86,West,270,3.4,6.7,25,0.00,,,0.00,WUHU216HW,2013-10-30 00:37:00,
2013-10-29 17:47:00,74.5,37.1,29.87,West,270,5.4,7.2,26,0.00,,,0.00,WUHU216HW,2013-10-30 00:47:00,
2013-10-29 17:57:00,73.8,36.5,29.87,West,270,4.3,5.4,26,0.00,,,0.00,WUHU216HW,2013-10-30 00:57:00,
2013-10-29 18:07:00,73.1,37.8,29.88,West,270,5.1,6.7,28,0.00,,,0.00,WUHU216HW,2013-10-30 01:07:00,
2013-10-29 18:17:00,72.2,39.2,29.88,West,270,4.7,11.0,30,0.00,,,0.00,WUHU216HW,2013-10-30 01:17:00,
2013-10-29 18:27:00,71.5,40.1,29.89,West,270,3.1,6.7,32,0.00,,,0.00,WUHU216HW,2013-10-30 01:27:00,
2013-10-29 18:37:00,70.7,39.3,29.89,WSW,248,1.8,6.0,32,0.00,,,0.00,WUHU216HW,2013-10-30 01:37:00,
2013-10-29 18:47:00,70.2,38.9,29.90,NW,315,8.1,8.1,32,0.00,,,0.00,WUHU216HW,2013-10-30 01:47:00,
2013-10-29 18:57:00,69.8,39.3,29.90,West,270,4.0,8.5,33,0.00,,,0.00,WUHU216HW,2013-10-30 01:57:00,
2013-10-29 19:07:00,69.5,39.7,29.90,WSW,248,6.3,6.7,34,0.00,,,0.00,WUHU216HW,2013-10-30 02:07:00,
2013-10-29 19:17:00,69.1,39.4,29.91,West,270,3.4,5.4,34,0.00,,,0.00,WUHU216HW,2013-10-30 02:17:00,
2013-10-29 19:27:00,68.4,38.7,29.91,West,270,2.5,4.3,34,0.00,,,0.00,WUHU216HW,2013-10-30 02:27:00,
2013-10-29 19:37:00,68.0,39.2,29.91,WSW,248,3.8,4.0,35,0.00,,,0.00,WUHU216HW,2013-10-30 02:37:00,
2013-10-29 19:47:00,67.5,39.4,29.92,West,270,1.3,4.0,36,0.00,,,0.00,WUHU216HW,2013-10-30 02:47:00,
2013-10-29 19:58:00,67.0,39.0,29.92,West,270,3.4,4.0,36,0.00,,,0.00,WUHU216HW,2013-10-30 02:58:00,
2013-10-29 20:08:00,66.4,39.3,29.92,West,270,1.8,3.6,37,0.00,,,0.00,WUHU216HW,2013-10-30 03:08:00,
2013-10-29 20:18:00,66.1,38.9,29.93,West,270,0.4,4.9,37,0.00,,,0.00,WUHU216HW,2013-10-30 03:18:00,
2013-10-29 20:28:00,65.5,38.4,29.93,West,270,0.0,1.3,37,0.00,,,0.00,WUHU216HW,2013-10-30 03:28:00,
2013-10-29 20:38:00,64.8,37.8,29.93,West,270,0.0,0.9,37,0.00,,,0.00,WUHU216HW,2013-10-30 03:38:00,
2013-10-29 20:48:00,64.1,37.8,29.93,West,270,0.7,1.1,38,0.00,,,0.00,WUHU216HW,2013-10-30 03:48:00,
2013-10-29 20:58:00,63.7,37.5,29.93,West,270,0.2,1.3,38,0.00,,,0.00,WUHU216HW,2013-10-30 03:58:00,
2013-10-29 21:08:00,63.0,37.6,29.93,West,270,0.2,0.7,39,0.00,,,0.00,WUHU216HW,2013-10-30 04:08:00,
2013-10-29 21:18:00,62.5,37.1,29.94,West,270,0.9,0.9,39,0.00,,,0.00,WUHU216HW,2013-10-30 04:18:00,
2013-10-29 21:28:00,61.9,37.4,29.94,West,270,0.9,1.1,40,0.00,,,0.00,WUHU216HW,2013-10-30 04:28:00,
2013-10-29 21:38:00,61.6,37.6,29.94,West,270,0.0,0.7,41,0.00,,,0.00,WUHU216HW,2013-10-30 04:38:00,
2013-10-29 21:48:00,61.2,37.3,29.95,West,270,0.4,0.9,41,0.00,,,0.00,WUHU216HW,2013-10-30 04:48:00,
2013-10-29 21:58:00,60.8,36.9,29.95,West,270,1.1,1.3,41,0.00,,,0.00,WUHU216HW,2013-10-30 04:58:00,
2013-10-29 22:08:00,60.5,37.2,29.95,West,270,0.4,0.4,42,0.00,,,0.00,WUHU216HW,2013-10-30 05:08:00,
2013-10-29 22:18:00,60.1,37.4,29.95,West,270,2.5,2.9,43,0.00,,,0.00,WUHU216HW,2013-10-30 05:18:00,
2013-10-29 22:28:00,59.6,38.1,29.95,West,270,0.2,2.7,45,0.00,,,0.00,WUHU216HW,2013-10-30 05:28:00,
2013-10-29 22:38:00,59.4,37.4,29.96,West,270,0.0,0.2,44,0.00,,,0.00,WUHU216HW,2013-10-30 05:38:00,
2013-10-29 22:48:00,59.2,37.2,29.95,West,270,0.0,1.1,44,0.00,,,0.00,WUHU216HW,2013-10-30 05:48:00,
2013-10-29 22:58:00,58.9,36.9,29.95,West,270,0.0,0.4,44,0.00,,,0.00,WUHU216HW,2013-10-30 05:58:00,
2013-10-29 23:08:00,58.5,36.5,29.95,West,270,0.0,0.2,44,0.00,,,0.00,WUHU216HW,2013-10-30 06:08:00,
2013-10-29 23:18:00,58.0,36.6,29.95,West,270,0.0,0.0,45,0.00,,,0.00,WUHU216HW,2013-10-30 06:18:00,
2013-10-29 23:28:00,57.2,36.0,29.95,West,270,0.0,0.4,45,0.00,,,0.00,WUHU216HW,2013-10-30 06:28:00,
2013-10-29 23:38:00,56.9,35.6,29.94,West,270,0.0,0.4,45,0.00,,,0.00,WUHU216HW,2013-10-30 06:38:00,
2013-10-29 23:49:00,56.5,35.9,29.94,West,270,0.0,0.0,46,0.00,,,0.00,WUHU216HW,2013-10-30 06:49:00,
2013-10-29 23:59:00,56.0,35.4,29.94,West,270,0.0,0.2,46,0.00,,,0.00,WUHU216HW,2013-10-30 06:59:00,